UAL445 KCMH-KIAD

Flight info

Callsign UAL445
Flight time N/A
Altitude 25000
Route OWEBO AIR MGW GIBBZ5
Aircraft A319/M-SDE3FGHIRWY/LB1

Departure

Time 2026-05-01 15:06
Airport John Glenn Columbus International Airport (KCMH)

Arrival

Time N/A
Airport Washington Dulles International Airport (KIAD)
Time Latitude Longitude Altitude Speed Heading
2026-05-01 14:46 39.99898 -82.88072 822 ft 0 kts 167°
2026-05-01 14:58 39.99901 -82.88074 824 ft 2 kts 167°
2026-05-01 14:58 39.99920 -82.88078 823 ft 3 kts 174°
2026-05-01 14:58 39.99940 -82.88079 825 ft 3 kts 186°
2026-05-01 14:58 39.99958 -82.88074 821 ft 3 kts 214°
2026-05-01 14:59 39.99968 -82.88061 825 ft 2 kts 267°
2026-05-01 14:59 39.99969 -82.88056 825 ft 0 kts 274°
2026-05-01 15:02 39.99969 -82.88062 825 ft 2 kts 274°
2026-05-01 15:02 39.99971 -82.88094 825 ft 5 kts 274°
2026-05-01 15:03 39.99974 -82.88155 825 ft 8 kts 274°
2026-05-01 15:03 39.99979 -82.88243 825 ft 11 kts 274°
2026-05-01 15:03 40.00029 -82.88303 824 ft 13 kts
2026-05-01 15:03 40.00089 -82.88257 825 ft 6 kts 99°
2026-05-01 15:04 40.00076 -82.88201 825 ft 8 kts 99°
2026-05-01 15:04 40.00072 -82.88117 825 ft 11 kts 92°
2026-05-01 15:04 40.00068 -82.88000 825 ft 14 kts 92°
2026-05-01 15:04 40.00098 -82.87935 824 ft 10 kts
2026-05-01 15:05 40.00163 -82.87972 824 ft 11 kts 285°
2026-05-01 15:05 40.00171 -82.88094 824 ft 21 kts 273°
2026-05-01 15:05 40.00193 -82.88552 827 ft 80 kts 274°
2026-05-01 15:05 40.00250 -82.89534 822 ft 136 kts 274°
2026-05-01 15:06 40.00325 -82.90892 1144 ft 152 kts 272°
2026-05-01 15:06 40.00401 -82.92275 1717 ft 155 kts 272°
2026-05-01 15:06 40.00476 -82.93690 2357 ft 158 kts 273°
2026-05-01 15:06 40.00888 -82.95079 2776 ft 181 kts 308°
2026-05-01 15:07 40.02092 -82.95835 3047 ft 214 kts 355°
2026-05-01 15:07 40.03581 -82.95213 3406 ft 243 kts 39°
2026-05-01 15:07 40.04543 -82.93313 3893 ft 265 kts 77°
2026-05-01 15:07 40.04713 -82.90889 4717 ft 272 kts 94°
2026-05-01 15:08 40.04587 -82.88433 5676 ft 277 kts 97°
2026-05-01 15:08 40.04421 -82.85897 6604 ft 284 kts 96°
2026-05-01 15:08 40.04310 -82.83298 7518 ft 289 kts 94°
2026-05-01 15:08 40.04273 -82.80640 8403 ft 295 kts 91°
2026-05-01 15:09 40.04301 -82.77935 9263 ft 301 kts 90°
2026-05-01 15:09 40.04374 -82.75180 10082 ft 307 kts 88°
2026-05-01 15:09 40.04472 -82.72312 10520 ft 328 kts 88°
2026-05-01 15:09 40.04587 -82.69230 10806 ft 352 kts 88°
2026-05-01 15:10 40.04714 -82.65934 11057 ft 375 kts 87°
2026-05-01 15:10 40.04977 -82.58964 12244 ft 391 kts 87°
2026-05-01 15:10 40.05109 -82.55385 12894 ft 397 kts 87°
2026-05-01 15:11 40.05236 -82.51802 13524 ft 403 kts 88°
2026-05-01 15:11 40.05486 -82.44382 14770 ft 414 kts 88°
2026-05-01 15:11 40.05612 -82.40590 15378 ft 420 kts 88°
2026-05-01 15:12 40.05740 -82.36753 15975 ft 425 kts 88°
2026-05-01 15:12 40.05995 -82.28948 17128 ft 436 kts 88°
2026-05-01 15:12 40.06125 -82.24978 17697 ft 441 kts 88°
2026-05-01 15:13 40.06508 -82.12814 19336 ft 456 kts 89°
2026-05-01 15:14 40.06762 -82.04447 20409 ft 465 kts 89°
2026-05-01 15:14 40.06891 -82.00208 20904 ft 469 kts 89°
2026-05-01 15:14 40.07148 -81.91622 21857 ft 477 kts 89°
2026-05-01 15:15 40.07400 -81.82895 22725 ft 485 kts 89°
2026-05-01 15:15 40.07642 -81.74028 23559 ft 491 kts 89°
2026-05-01 15:16 40.07356 -81.65134 24340 ft 496 kts 97°
2026-05-01 15:16 40.06771 -81.56091 24954 ft 503 kts 97°
2026-05-01 15:17 40.06167 -81.46850 24998 ft 516 kts 97°
2026-05-01 15:18 40.05232 -81.32817 24999 ft 517 kts 97°
2026-05-01 15:18 40.04923 -81.28133 24998 ft 516 kts 97°
2026-05-01 15:19 40.03979 -81.14130 24991 ft 516 kts 97°
2026-05-01 15:19 40.03342 -81.04858 24993 ft 516 kts 97°
2026-05-01 15:19 40.03015 -81.00198 25003 ft 516 kts 98°
2026-05-01 15:20 40.02357 -80.90887 25012 ft 515 kts 98°
2026-05-01 15:20 40.01873 -80.86222 24981 ft 521 kts 105°
2026-05-01 15:20 40.00913 -80.81655 24991 ft 523 kts 114°
2026-05-01 15:21 39.99500 -80.77305 24990 ft 518 kts 122°
2026-05-01 15:21 39.97689 -80.73245 24984 ft 516 kts 128°
2026-05-01 15:21 39.95784 -80.69259 24987 ft 519 kts 128°
2026-05-01 15:21 39.93870 -80.65252 24996 ft 520 kts 128°
2026-05-01 15:22 39.90078 -80.57298 24995 ft 520 kts 128°
2026-05-01 15:22 39.88168 -80.53295 25003 ft 520 kts 128°
2026-05-01 15:22 39.86259 -80.49297 24999 ft 519 kts 128°
2026-05-01 15:23 39.84347 -80.45301 24992 ft 519 kts 128°
2026-05-01 15:23 39.82437 -80.41319 25003 ft 519 kts 128°
2026-05-01 15:23 39.80526 -80.37345 25009 ft 518 kts 128°
2026-05-01 15:23 39.78611 -80.33367 25015 ft 518 kts 128°
2026-05-01 15:24 39.76698 -80.29396 25006 ft 518 kts 128°
2026-05-01 15:24 39.74785 -80.25430 25007 ft 518 kts 128°
2026-05-01 15:24 39.72872 -80.21469 25004 ft 517 kts 128°
2026-05-01 15:24 39.70960 -80.17510 25005 ft 517 kts 128°
2026-05-01 15:25 39.69051 -80.13555 25007 ft 517 kts 128°
2026-05-01 15:25 39.67141 -80.09603 25005 ft 517 kts 128°
2026-05-01 15:25 39.65226 -80.05655 25004 ft 517 kts 129°
2026-05-01 15:25 39.63310 -80.01713 25005 ft 517 kts 129°
2026-05-01 15:26 39.61390 -79.97771 25012 ft 517 kts 129°
2026-05-01 15:26 39.59467 -79.93832 25008 ft 517 kts 129°
2026-05-01 15:26 39.57550 -79.89866 25005 ft 519 kts 127°
2026-05-01 15:26 39.55937 -79.85660 25006 ft 526 kts 117°
2026-05-01 15:27 39.54788 -79.81198 25001 ft 532 kts 108°
2026-05-01 15:27 39.53955 -79.76518 24993 ft 533 kts 107°
2026-05-01 15:27 39.53129 -79.71837 24991 ft 533 kts 107°
2026-05-01 15:28 39.51452 -79.62471 24982 ft 534 kts 107°
2026-05-01 15:28 39.50600 -79.57786 24987 ft 534 kts 107°
2026-05-01 15:28 39.49743 -79.53103 24983 ft 535 kts 107°
2026-05-01 15:29 39.48026 -79.43713 24972 ft 536 kts 107°
2026-05-01 15:29 39.47174 -79.39014 24973 ft 536 kts 107°
2026-05-01 15:29 39.45465 -79.29611 24968 ft 537 kts 107°
2026-05-01 15:30 39.44027 -79.21794 24973 ft 537 kts 107°
2026-05-01 15:31 39.40374 -79.01395 25001 ft 539 kts 106°
2026-05-01 15:31 39.38740 -78.91917 25015 ft 540 kts 106°
2026-05-01 15:32 39.37064 -78.82457 25021 ft 539 kts 107°
2026-05-01 15:32 39.35354 -78.73011 25026 ft 540 kts 107°
2026-05-01 15:33 39.32764 -78.58861 25034 ft 539 kts 107°
2026-05-01 15:34 39.30240 -78.44882 23062 ft 520 kts 106°